Location: Newark
(48.9320°N, 2.2664°E)
Time: 15:59:12
(UTC+00:00)

SR - Visible Passes

Search period start: 19 February 2020 00:00
Search period end: 29 February 2020 00:00
Orbit: 575 x 881 km, 66.7° (Epoch: 18 February)

Date Brightness Start Highest point End Pass type
(mag) Time Alt. Az. Time Alt. Az. Time Alt. Az.
19 Feb ? 18:42:45 10° WNW 18:46:48 19° NNW 18:50:46 10° NNE visible
19 Feb ? 20:28:52 10° NNW 20:31:13 12° N 20:32:13 12° NNE visible
19 Feb ? 22:11:36 10° NNW 22:11:37 10° NNW 22:11:37 10° NNW visible
20 Feb ? 17:51:41 10° W 17:56:31 25° NNW 18:01:12 10° NNE visible
20 Feb ? 19:38:04 10° NW 19:40:41 13° N 19:43:14 10° NNE visible
20 Feb ? 21:21:59 10° NNW 21:23:18 13° N 21:23:18 13° N visible
21 Feb ? 18:46:52 10° NW 18:50:10 15° NNW 18:53:24 10° NNE visible
21 Feb ? 20:32:08 10° NNW 20:34:43 13° N 20:34:58 13° NNE visible
21 Feb ? 22:14:13 10° NNW 22:14:22 11° NNW 22:14:22 11° NNW visible
22 Feb ? 17:55:39 10° WNW 17:59:46 19° NNW 18:03:46 10° NNE visible
22 Feb ? 19:41:52 10° NNW 19:44:11 12° N 19:46:25 10° NNE visible
22 Feb ? 21:24:40 10° NNW 21:26:02 14° N 21:26:02 14° N visible
23 Feb ? 18:51:00 10° NW 18:53:37 13° N 18:56:11 10° NNE visible
23 Feb ? 20:35:02 10° NNW 20:37:42 15° N 20:37:42 15° N visible
23 Feb ? 22:16:51 10° NNW 22:17:06 11° NNW 22:17:06 11° NNW visible
24 Feb ? 17:59:47 10° NW 18:03:08 15° NNW 18:06:24 10° NNE visible
24 Feb ? 19:45:11 10° NNW 19:47:40 13° N 19:49:21 11° NNE visible
24 Feb ? 21:27:18 10° NNW 21:28:46 16° N 21:28:46 16° N visible
25 Feb ? 18:54:52 10° NNW 18:57:07 12° N 18:59:20 10° NNE visible
25 Feb ? 20:37:44 10° NNW 20:40:26 17° N 20:40:26 17° N visible
25 Feb ? 22:19:30 10° NNW 22:19:50 12° NNW 22:19:50 12° NNW visible
26 Feb ? 18:03:56 10° NW 18:06:34 13° N 18:09:09 10° NNE visible
26 Feb ? 19:48:06 10° NNW 19:51:07 15° NNE 19:52:06 14° NNE visible
26 Feb ? 21:29:54 10° NNW 21:31:31 18° NNW 21:31:31 18° NNW visible
27 Feb ? 18:58:14 10° NNW 19:00:36 13° N 19:02:55 10° NNE visible
27 Feb ? 20:40:21 10° NNW 20:43:12 21° N 20:43:12 21° N visible
27 Feb ? 22:22:15 10° NW 22:22:36 12° NW 22:22:36 12° NW visible
28 Feb ? 18:07:51 10° NNW 18:10:03 12° N 18:12:13 10° NNE visible
28 Feb ? 19:50:48 10° NNW 19:54:28 18° NNE 19:54:54 18° NNE visible
28 Feb ? 21:32:33 10° NNW 21:34:18 20° NNW 21:34:18 20° NNW visible
